Showing default

METEOR 3-5, 21655

Orbit data source: Space-Track

METEOR 3-5, 21655 is a payload satellite owned by Rosgidromet (CIS) in LEO that was launched on Thu, 15 Aug 1991 UTC via a TSIKLON-3 launch vehicle from the Plesetsk Missile And Space Complex (PKMTR). Payload-class satellites include a variety of spacecraft equipped with specific instruments for various scientific and technological missions. These include communications satellites like Starlink; space stations such as the ISS; scientific satellites like the Hubble; Earth observation satellites from companies like Planet Labs, Umbra, and HawkEye 360; GPS; miniature CubeSats for education and research; and military/defense satellites.

Loading next visibility...
Identifier
21655, 1991-056A
Orbit
LEO
Country
Flag of CISCIS
Related business
Manufacturer
VNIIEM
Mission
Civil Weather
Bus & Motor
METEOR-3, Unknown motor
Mass
2,150 kg wet, 2,150 kg dry
Launch date (UTC)
1991-08-15 (34 years ago)
Launch vehicle
TSIKLON-3
Launch site
Plesetsk Missile And Space Complex (PKMTR)
Object type
Payload
Rocket body
Debris
Shape & HBR
Cyl + 2 Pan, 6.3 m
Radar Cross Section
21.153 m², Large (>1 m²)

Expand to show TLE details & history
Last TLE update: 23 hours ago

TLE from 23 hours ago
0 METEOR 3-5
1 21655U 91056A   25242.03583573  .00000117  00000-0  27096-3 0  9995
2 21655  82.5610 345.1122 0014096 142.3110 217.9003 13.17149390636244
Epoch: 2025-08-30T00:51Z
TLE epoch observation values (Epoch: 2025-08-30T00:51:36.207Z)
Latitude
0.00002°
Longitude
-6.26457°
Altitude
1,206.867 km
Speed
7.247 km/s
True Right ascension
23h 00m 26s
True Declination
0° 00' 00"
Sunlit
Object was in full shadow at epoch
Visualization orbit readout
Latitude
Unknown
Longitude
Unknown
Altitude
Unknown
Speed
Unknown
Apparent Right ascension
Unknown
Apparent Declination
Unknown
Sunlit
N/A
Visualization observer readout
Local Sidereal Time
15:54:16
Azimuth
Unknown
Elevation
Unknown
Doppler factor
Unknown
Orbital elements
Apogee altitude
1,203.544 km
Perigee altitude
1,182.2 km
Semi-major axis
7,571.009 km
Eccentricity
0.00141
Inclination
82.561°
RAAN
345.1122°
Arg. of periapsis
142.311°
True anomaly
217.80121°
Mean anomaly
217.9003°
Eccentric anomaly
217.85074°
Mean motion
3.29467 °/min
Orbital period
109.27 mins
BSTAR
0.00027096
Loading maneuver chart data...
Computing Atmospheric mass density...
Loading historical data...
Loading historical data...
Loading historical data...
Loading historical data...
Loading historical data...
Loading historical data...
Loading historical data...

Documentation

Showing up to 5 results
|